User: anonymous
Location: Brno
(49.2000°N, 16.6330°E)
Time: 00:55:16
(UTC+02:00)
Language:

NOSS 3-4 (A) - Orbit

View from above orbital plane
View from above orbital plane
View from above satellite
View from above satellite

Ground track
Ground track

The orbit data is extracted from the following two-line orbital elements,

1 31701U 07027A   14209.93946333 0.00000000  00000-0  00000-0 0    07
2 31701  63.4030 249.9638 0111000  37.4410 322.5590 13.40648571    08
Epoch (UTC): 28 July 2014 22:32:49
Eccentricity: 0.0111000
inclination: 63.4030°
perigee height: 1024 km
apogee height: 1190 km
right ascension of ascending node: 249.9638°
argument of perigee: 37.4410°
revolutions per day: 13.40648571
mean anomaly at epoch: 322.5590°
orbit number at epoch: 0

The dashed part of the orbit path shows where the satellite is in the earth's shadow,  

DLR